TimeCST,TemperatureF,Dew PointF,Humidity,Sea Level PressureIn,VisibilityMPH,Wind Direction,Wind SpeedMPH,Gust SpeedMPH,PrecipitationIn,Events,Conditions,WindDirDegrees,DateUTC
12:52 AM,17.1,8.1,68,30.19,10.0,Variable,4.6,-,N/A,,Scattered Clouds,0,2013-01-13 06:52:00
1:52 AM,16.0,5.0,62,30.20,10.0,NNW,6.9,-,N/A,,Clear,340,2013-01-13 07:52:00
2:52 AM,15.1,5.0,64,30.22,10.0,Variable,6.9,-,N/A,,Clear,0,2013-01-13 08:52:00
3:52 AM,15.1,6.1,68,30.24,10.0,NNW,4.6,-,N/A,,Clear,340,2013-01-13 09:52:00
4:52 AM,14.0,6.1,71,30.25,10.0,NNW,4.6,-,N/A,,Clear,330,2013-01-13 10:52:00
5:52 AM,12.9,5.0,71,30.25,10.0,Variable,3.5,-,N/A,,Clear,0,2013-01-13 11:52:00
6:52 AM,12.0,5.0,73,30.29,10.0,Calm,Calm,-,N/A,,Clear,0,2013-01-13 12:52:00
7:52 AM,12.0,5.0,73,30.31,10.0,NW,5.8,-,N/A,,Clear,320,2013-01-13 13:52:00
8:52 AM,15.1,5.0,64,30.34,10.0,NW,8.1,-,N/A,,Clear,320,2013-01-13 14:52:00
9:52 AM,17.1,5.0,59,30.35,10.0,Variable,6.9,-,N/A,,Clear,0,2013-01-13 15:52:00
10:52 AM,19.0,3.0,50,30.36,10.0,NNW,5.8,-,N/A,,Clear,340,2013-01-13 16:52:00
11:52 AM,21.9,3.0,44,30.34,10.0,WNW,5.8,-,N/A,,Clear,300,2013-01-13 17:52:00
12:52 PM,25.0,3.0,39,30.31,10.0,WNW,9.2,-,N/A,,Clear,300,2013-01-13 18:52:00
1:52 PM,26.1,3.0,37,30.28,10.0,Variable,6.9,-,N/A,,Clear,0,2013-01-13 19:52:00
2:52 PM,28.4,3.2,34,30.24,10.0,NNW,9.2,-,N/A,,Clear,330,2013-01-13 20:52:00
3:52 PM,28.0,6.1,39,30.33,10.0,WNW,6.9,-,N/A,,Clear,300,2013-01-13 21:52:00
4:52 PM,27.0,6.1,41,30.33,10.0,NW,3.5,-,N/A,,Clear,320,2013-01-13 22:52:00
5:52 PM,23.0,6.1,48,30.35,10.0,Calm,Calm,-,N/A,,Clear,0,2013-01-13 23:52:00
6:52 PM,19.0,7.0,59,30.36,10.0,Calm,Calm,-,N/A,,Clear,0,2013-01-14 00:52:00
7:52 PM,18.0,7.0,62,30.39,10.0,West,3.5,-,N/A,,Clear,280,2013-01-14 01:52:00
8:52 PM,18.0,7.0,62,30.38,10.0,NW,3.5,-,N/A,,Clear,320,2013-01-14 02:52:00
9:52 PM,15.1,7.0,70,30.41,10.0,SSW,3.5,-,N/A,,Clear,210,2013-01-14 03:52:00
10:52 PM,15.8,6.8,68,30.36,10.0,Calm,Calm,-,N/A,,Clear,0,2013-01-14 04:52:00
11:52 PM,14.0,8.1,77,30.42,10.0,Calm,Calm,-,N/A,,Clear,0,2013-01-14 05:52:00